,,PA_Meas_PMT16A,,PR_Meas_QMR101_102,,RH_Meas_QMH101,,SR_Meas_QMS101,,TA_Meas_QMH101,,GenWind,,GenWind,
time,status,PA,status,PR,status,RH,status,SR,status,TA,status,DirAvg,status,SpdAvg,
2016-11-14, 14:08:04,VALID,918.195,VALID,0,INVALID,115.342,VALID,204.568,VALID,19.0232,VALID,127,VALID,1.36406,
2016-11-14, 14:09:04,VALID,918.216,VALID,0,INVALID,115.258,VALID,226.808,VALID,19.1402,VALID,119,VALID,1.64688,
2016-11-14, 14:11:04,VALID,918.233,VALID,0,INVALID,115.441,VALID,163.74,VALID,19.0427,VALID,122,VALID,1.53359,
2016-11-14, 14:12:04,VALID,918.237,VALID,0,INVALID,115.426,VALID,168.897,VALID,19.0803,VALID,138,VALID,1.40508,
2016-11-14, 14:13:04,VALID,918.224,VALID,0,INVALID,115.495,VALID,184.262,VALID,19.0413,VALID,144,VALID,1.50703,
2016-11-14, 14:14:04,VALID,918.234,VALID,0,INVALID,115.358,VALID,171.798,VALID,19.1778,VALID,150,VALID,1.36992,
2016-11-14, 14:27:04,VALID,918.223,VALID,0,INVALID,115.419,VALID,160.087,VALID,19.4508,VALID,173,VALID,0.0289063,
2016-11-14, 14:28:04,VALID,918.225,VALID,0,INVALID,115.266,VALID,174.055,VALID,19.6278,VALID,176,VALID,1.36328,
2016-11-14, 14:29:04,VALID,918.233,VALID,0,INVALID,115.266,VALID,179.642,VALID,19.6068,VALID,164,VALID,0.105469,
2016-11-14, 14:30:04,VALID,918.213,VALID,0,INVALID,115.22,VALID,177.278,VALID,19.6848,VALID,180,VALID,1.37578,
2016-11-14, 14:31:04,VALID,918.249,VALID,0,INVALID,115.251,VALID,182.435,VALID,19.7433,VALID,180,VALID,0.742969,
2016-11-14, 14:32:04,VALID,918.223,VALID,0,INVALID,115.304,VALID,241.098,VALID,19.7628,VALID,157,VALID,1.85039,
2016-11-14, 14:33:04,VALID,918.282,VALID,0,INVALID,115.54,VALID,255.71,VALID,19.7433,VALID,175,VALID,1.9543,
2016-11-14, 14:34:04,VALID,918.277,VALID,0,INVALID,115.617,VALID,299.116,VALID,19.7823,VALID,138,VALID,1.57734,
2016-11-14, 14:35:04,VALID,918.297,VALID,0,INVALID,115.731,VALID,307.604,VALID,19.8603,VALID,139,VALID,1.43633,
2016-11-14, 14:36:04,VALID,918.319,VALID,0,INVALID,115.899,VALID,267.206,VALID,19.8993,VALID,146,VALID,1.37852,
2016-11-14, 14:37:04,VALID,918.345,VALID,0,INVALID,116.181,VALID,294.389,VALID,19.9383,VALID,136,VALID,0.9375,
2016-11-14, 14:38:04,VALID,918.345,VALID,0,INVALID,116.272,VALID,364.548,VALID,19.9968,VALID,123,VALID,1.16953,
2016-11-14, 14:39:04,VALID,918.34,VALID,0,INVALID,116.135,VALID,389.367,VALID,20.1708,VALID,119,VALID,0.851953,
2016-11-14, 14:40:04,VALID,918.382,VALID,0,INVALID,116.059,VALID,392.268,VALID,20.3854,VALID,109,VALID,1.30742,
2016-11-14, 14:41:04,VALID,918.359,VALID,0,INVALID,116.623,VALID,408.384,VALID,20.4049,VALID,111,VALID,1.5043,
2016-11-14, 14:42:04,VALID,918.386,VALID,0,INVALID,116.974,VALID,389.797,VALID,20.4439,VALID,151,VALID,1.4043,
2016-11-14, 14:43:04,VALID,918.423,VALID,0,INVALID,117.721,VALID,348.109,VALID,20.4439,VALID,133,VALID,1.35117,
2016-11-14, 14:44:04,VALID,918.435,VALID,0,INVALID,118.079,VALID,418.591,VALID,20.5804,VALID,153,VALID,1.28555,
2016-11-14, 14:45:04,VALID,918.44,VALID,0,INVALID,118.735,VALID,287.62,VALID,20.6194,VALID,149,VALID,1.11602,
2016-11-14, 14:46:04,VALID,918.497,VALID,0,INVALID,119.139,VALID,399.574,VALID,20.717,VALID,137,VALID,0.000390625,
2016-11-14, 14:47:04,VALID,918.472,VALID,0,INVALID,120.343,VALID,294.066,VALID,20.717,VALID,145,VALID,0.702344,
2016-11-14, 14:48:04,VALID,918.49,VALID,0,INVALID,120.877,VALID,286.331,VALID,20.8714,VALID,108,VALID,0,
2016-11-14, 14:49:04,VALID,918.477,VALID,0,INVALID,121.837,VALID,298.042,VALID,21.0486,VALID,166,VALID,0,
2016-11-14, 14:50:04,VALID,918.493,VALID,0,INVALID,122.638,VALID,273.975,VALID,21.086,VALID,93,VALID,0,
2016-11-14, 14:51:04,VALID,918.518,VALID,0,INVALID,122.813,VALID,324.687,VALID,21.0681,VALID,108,VALID,0,
2016-11-14, 14:52:04,VALID,918.498,VALID,0,INVALID,122.013,VALID,355.308,VALID,21.0486,VALID,107,VALID,0,
2016-11-14, 14:53:04,VALID,918.487,VALID,0,INVALID,119.573,VALID,440.938,VALID,21.0486,VALID,114,VALID,0,
2016-11-14, 14:54:04,VALID,918.492,VALID,0,INVALID,120.267,VALID,459.311,VALID,21.2047,VALID,64,VALID,1.06367,
2016-11-14, 14:55:04,VALID,918.498,VALID,0,INVALID,117.08,VALID,429.335,VALID,21.2437,VALID,69,VALID,1.50273,
2016-11-14, 14:56:04,VALID,918.547,VALID,0,VALID,98.3954,VALID,412.467,VALID,21.4388,VALID,77,VALID,0.708203,
2016-11-14, 14:57:04,VALID,918.555,VALID,0,VALID,88.4621,VALID,450.178,VALID,21.5363,VALID,78,VALID,0,
2016-11-14, 14:58:04,VALID,918.563,VALID,0,VALID,87.6388,VALID,386.251,VALID,21.79,VALID,83,VALID,0,
2016-11-14, 14:59:04,VALID,918.611,VALID,0,VALID,91.0617,VALID,345.316,VALID,22.0615,VALID,49,VALID,0,
2016-11-14, 15:00:04,VALID,918.614,VALID,0,VALID,84.6504,VALID,399.681,VALID,22.2567,VALID,99,VALID,0,
2016-11-14, 15:01:04,VALID,918.604,VALID,0,VALID,82.4396,VALID,413.219,VALID,22.3754,VALID,137,VALID,0,
2016-11-14, 15:02:04,VALID,918.577,VALID,0,VALID,81.5629,VALID,288.372,VALID,22.5103,VALID,139,VALID,0,
2016-11-14, 15:03:04,VALID,918.601,VALID,0,VALID,82.836,VALID,298.579,VALID,22.647,VALID,120,VALID,0,
2016-11-14, 15:04:04,VALID,918.577,VALID,0,VALID,81.601,VALID,255.925,VALID,22.5494,VALID,148,VALID,0,
2016-11-14, 15:05:04,VALID,918.542,VALID,0,VALID,81.1741,VALID,241.743,VALID,22.5299,VALID,161,VALID,0,
2016-11-14, 15:06:04,VALID,918.535,VALID,0,VALID,82.3329,VALID,234.866,VALID,22.5477,VALID,158,VALID,0,
2016-11-14, 15:07:04,VALID,918.538,VALID,0,VALID,86.2589,VALID,229.494,VALID,22.5299,VALID,145,VALID,0,
2016-11-14, 15:08:04,VALID,918.541,VALID,0,VALID,86.6325,VALID,225.089,VALID,22.4501,VALID,174,VALID,0,
2016-11-14, 15:09:04,VALID,918.568,VALID,0,VALID,84.7495,VALID,220.684,VALID,22.434,VALID,181,VALID,0,
2016-11-14, 15:10:04,VALID,918.607,VALID,0,VALID,87.0747,VALID,216.816,VALID,22.4323,VALID,123,VALID,0,
2016-11-14, 15:11:04,VALID,918.582,VALID,0,VALID,85.1688,VALID,221.221,VALID,22.3152,VALID,98,VALID,0,
2016-11-14, 15:12:04,VALID,918.622,VALID,0,VALID,88.6222,VALID,244.321,VALID,22.1998,VALID,156,VALID,0,
2016-11-14, 15:13:04,VALID,918.631,VALID,0,VALID,88.7137,VALID,261.619,VALID,22.0615,VALID,154,VALID,0,
2016-11-14, 15:14:04,VALID,918.63,VALID,0,VALID,92.5635,VALID,299.546,VALID,22.042,VALID,155,VALID,0,
2016-11-14, 15:15:04,VALID,918.652,VALID,0,VALID,87.776,VALID,405.375,VALID,22.042,VALID,143,VALID,0,
2016-11-14, 15:16:04,VALID,918.672,VALID,0,VALID,87.2271,VALID,430.946,VALID,22.081,VALID,144,VALID,0,
2016-11-14, 15:17:04,VALID,918.707,VALID,0,VALID,91.8164,VALID,379.912,VALID,22.2176,VALID,142,VALID,0,
2016-11-14, 15:18:04,VALID,918.705,VALID,0,VALID,91.1761,VALID,339.407,VALID,22.4518,VALID,112,VALID,0,
2016-11-14, 15:19:04,VALID,918.745,VALID,0,VALID,84.6504,VALID,369.705,VALID,22.4323,VALID,153,VALID,0,
2016-11-14, 15:20:04,VALID,918.757,VALID,0,VALID,90.2308,VALID,431.806,VALID,22.4323,VALID,161,VALID,0,
2016-11-14, 15:21:04,VALID,918.752,VALID,0,VALID,83.8652,VALID,429.872,VALID,22.4696,VALID,97,VALID,0,
2016-11-14, 15:22:04,VALID,918.766,VALID,0,VALID,85.6948,VALID,410.855,VALID,22.4696,VALID,74,VALID,0,
2016-11-14, 15:23:04,VALID,918.809,VALID,0,VALID,89.8572,VALID,428.153,VALID,22.4696,VALID,46,VALID,0,
2016-11-14, 15:24:04,VALID,918.815,VALID,0,VALID,91.7097,VALID,469.84,VALID,22.6843,VALID,97,VALID,0,
2016-11-14, 15:25:04,VALID,918.817,VALID,0,VALID,86.3352,VALID,467.476,VALID,22.8209,VALID,157,VALID,1.45977,
2016-11-14, 15:26:04,VALID,918.803,VALID,0,VALID,85.3899,VALID,433.418,VALID,22.9965,VALID,151,VALID,0.955859,
2016-11-14, 15:27:04,VALID,918.825,VALID,0,VALID,81.6849,VALID,448.782,VALID,23.0941,VALID,144,VALID,1.69805,
2016-11-14, 15:28:04,VALID,918.815,VALID,0,VALID,81.9822,VALID,463.394,VALID,22.8582,VALID,157,VALID,2.13164,
2016-11-14, 15:29:04,VALID,918.832,VALID,0,VALID,83.8347,VALID,458.666,VALID,22.7606,VALID,135,VALID,0.65625,
2016-11-14, 15:30:04,VALID,918.844,VALID,0,VALID,82.3558,VALID,437.5,VALID,22.8387,VALID,157,VALID,0.496484,
2016-11-14, 15:31:04,VALID,918.842,VALID,0,VALID,81.4257,VALID,491.543,VALID,22.8582,VALID,156,VALID,1.82813,
2016-11-14, 15:32:04,VALID,918.869,VALID,0,VALID,82.8284,VALID,528.181,VALID,22.8191,VALID,166,VALID,0.768359,
2016-11-14, 15:33:04,VALID,918.863,VALID,0,VALID,80.3584,VALID,628.208,VALID,22.8759,VALID,160,VALID,2.06836,
2016-11-14, 15:34:04,VALID,918.86,VALID,0,VALID,79.032,VALID,578.356,VALID,22.9167,VALID,118,VALID,1.16758,
2016-11-14, 15:35:04,VALID,918.886,VALID,0,VALID,81.5934,VALID,491.651,VALID,23.0143,VALID,125,VALID,0.998438,
2016-11-14, 15:36:04,VALID,918.865,VALID,0,VALID,78.4297,VALID,496.915,VALID,23.1704,VALID,140,VALID,0.366797,
2016-11-14, 15:37:04,VALID,918.889,VALID,0,VALID,78.91,VALID,494.122,VALID,23.2077,VALID,163,VALID,0.0945313,
2016-11-14, 15:38:04,VALID,918.86,VALID,0,VALID,79.7638,VALID,487.998,VALID,23.2272,VALID,137,VALID,0,
2016-11-14, 15:39:04,VALID,918.874,VALID,0,VALID,81.1131,VALID,435.137,VALID,23.229,VALID,123,VALID,0,
2016-11-14, 15:40:04,VALID,918.891,VALID,0,VALID,80.3737,VALID,378.3,VALID,23.268,VALID,96,VALID,0.0980469,
2016-11-14, 15:41:04,VALID,918.909,VALID,0,VALID,81.5705,VALID,344.134,VALID,23.1136,VALID,103,VALID,0,
2016-11-14, 15:42:04,VALID,918.905,VALID,0,VALID,82.6073,VALID,334.894,VALID,22.9753,VALID,59,VALID,0.0511719,
2016-11-14, 15:43:04,VALID,918.907,VALID,0,VALID,83.728,VALID,342.415,VALID,22.9167,VALID,88,VALID,2.12578,
2016-11-14, 15:44:04,VALID,918.955,VALID,0,VALID,86.9679,VALID,355.738,VALID,22.8972,VALID,165,VALID,0.149609,
2016-11-14, 15:45:04,VALID,918.95,VALID,0,VALID,83.5908,VALID,373.895,VALID,22.9362,VALID,107,VALID,1.33086,
2016-11-14, 15:46:04,VALID,918.934,VALID,0,VALID,86.2285,VALID,381.416,VALID,23.0143,VALID,72,VALID,0.8375,
2016-11-14, 15:47:04,VALID,918.944,VALID,0,VALID,87.0823,VALID,367.234,VALID,22.9753,VALID,63,VALID,1.37617,
2016-11-14, 15:48:04,VALID,918.94,VALID,0,VALID,84.1396,VALID,340.588,VALID,22.9362,VALID,74,VALID,0.857813,
2016-11-14, 15:49:04,VALID,918.932,VALID,0,VALID,86.015,VALID,322.109,VALID,22.9948,VALID,76,VALID,0,
2016-11-14, 15:50:04,VALID,918.911,VALID,0,VALID,82.5235,VALID,311.902,VALID,23.0338,VALID,76,VALID,1.86406,
2016-11-14, 15:51:04,VALID,918.92,VALID,0,VALID,84.2997,VALID,301.587,VALID,22.9735,VALID,108,VALID,1.34219,
2016-11-14, 15:52:04,VALID,918.918,VALID,0,VALID,80.8463,VALID,290.199,VALID,22.8582,VALID,120,VALID,1.60312,
2016-11-14, 15:53:04,VALID,918.921,VALID,0,VALID,82.8513,VALID,279.24,VALID,22.8582,VALID,136,VALID,0.694922,
2016-11-14, 15:54:04,VALID,918.909,VALID,0,VALID,79.5961,VALID,270.429,VALID,22.8777,VALID,121,VALID,1.0918,
2016-11-14, 15:55:04,VALID,918.865,VALID,0,VALID,81.8602,VALID,264.95,VALID,22.8972,VALID,104,VALID,0,
2016-11-14, 15:56:04,VALID,918.86,VALID,0,VALID,80.8235,VALID,262.694,VALID,22.8955,VALID,109,VALID,0.992188,
2016-11-14, 15:57:04,VALID,918.86,VALID,0,VALID,82.9809,VALID,263.016,VALID,22.8564,VALID,99,VALID,0.113672,
2016-11-14, 15:58:04,VALID,918.866,VALID,0,VALID,84.5437,VALID,265.487,VALID,22.954,VALID,98,VALID,0,
2016-11-14, 15:59:04,VALID,918.87,VALID,0,VALID,80.2974,VALID,268.925,VALID,23.0924,VALID,136,VALID,0,
2016-11-14, 16:00:04,VALID,918.866,VALID,0,VALID,79.1082,VALID,272.041,VALID,23.1704,VALID,158,VALID,0,
2016-11-14, 16:01:04,VALID,918.847,VALID,0,VALID,78.7804,VALID,274.297,VALID,23.1899,VALID,157,VALID,0,
2016-11-14, 16:02:04,VALID,918.869,VALID,0,VALID,78.3001,VALID,276.339,VALID,23.1687,VALID,159,VALID,0,
2016-11-14, 16:03:04,VALID,918.901,VALID,0,VALID,79.314,VALID,277.735,VALID,23.307,VALID,127,VALID,0,
2016-11-14, 16:04:04,VALID,918.869,VALID,0,VALID,76.6611,VALID,277.306,VALID,23.3638,VALID,128,VALID,0,
2016-11-14, 16:05:04,VALID,918.879,VALID,0,VALID,78.1629,VALID,275.909,VALID,23.3851,VALID,128,VALID,0,
2016-11-14, 16:06:04,VALID,918.884,VALID,0,VALID,80.6557,VALID,274.405,VALID,23.4827,VALID,122,VALID,0,
2016-11-14, 16:07:04,VALID,918.909,VALID,0,VALID,78.4221,VALID,273.438,VALID,23.4809,VALID,97,VALID,0,
2016-11-14, 16:08:04,VALID,918.893,VALID,0,VALID,79.032,VALID,272.901,VALID,23.4809,VALID,156,VALID,0,
2016-11-14, 16:09:04,VALID,918.864,VALID,0,VALID,78.3992,VALID,274.512,VALID,23.5199,VALID,124,VALID,0.0148437,
2016-11-14, 16:10:04,VALID,918.874,VALID,0,VALID,70.2574,VALID,278.487,VALID,23.4419,VALID,70,VALID,0.669141,
2016-11-14, 16:11:04,VALID,918.888,VALID,0,VALID,73.1695,VALID,284.934,VALID,23.3443,VALID,76,VALID,0,
2016-11-14, 16:12:04,VALID,918.84,VALID,0,VALID,77.7055,VALID,286.975,VALID,23.2857,VALID,65,VALID,0,
2016-11-14, 16:13:04,VALID,918.902,VALID,0,VALID,77.3091,VALID,279.24,VALID,23.229,VALID,58,VALID,0.601953,
2016-11-14, 16:14:04,VALID,918.884,VALID,0,VALID,81.2427,VALID,265.38,VALID,23.2467,VALID,102,VALID,0,
2016-11-14, 16:15:04,VALID,918.864,VALID,0,VALID,76.0283,VALID,248.511,VALID,23.2077,VALID,97,VALID,0,
2016-11-14, 16:16:04,VALID,918.872,VALID,0,VALID,76.6153,VALID,231.536,VALID,23.1509,VALID,111,VALID,0,
2016-11-14, 16:17:04,VALID,918.837,VALID,0,VALID,77.5301,VALID,216.924,VALID,23.1882,VALID,117,VALID,0,
2016-11-14, 16:18:04,VALID,918.867,VALID,0,VALID,79.6571,VALID,206.824,VALID,23.2662,VALID,78,VALID,0,
2016-11-14, 16:19:04,VALID,918.814,VALID,0,VALID,78.8414,VALID,203.386,VALID,23.3638,VALID,135,VALID,0,
2016-11-14, 16:20:04,VALID,918.824,VALID,0,VALID,76.9279,VALID,204.998,VALID,23.3248,VALID,148,VALID,0,
2016-11-14, 16:21:04,VALID,918.801,VALID,0,VALID,76.9126,VALID,209.51,VALID,23.307,VALID,142,VALID,0,
2016-11-14, 16:22:04,VALID,918.777,VALID,0,VALID,74.3436,VALID,215.957,VALID,23.2857,VALID,165,VALID,0,
2016-11-14, 16:23:04,VALID,918.772,VALID,0,VALID,74.9763,VALID,223.692,VALID,23.4046,VALID,135,VALID,0,
2016-11-14, 16:24:04,VALID,918.761,VALID,0,VALID,71.378,VALID,231.321,VALID,23.4419,VALID,131,VALID,0,
2016-11-14, 16:25:04,VALID,918.737,VALID,0,VALID,73.3754,VALID,238.627,VALID,23.4827,VALID,145,VALID,0,
2016-11-14, 16:26:04,VALID,918.782,VALID,0,VALID,75.0373,VALID,246.255,VALID,23.4437,VALID,89,VALID,0,
2016-11-14, 16:27:04,VALID,918.704,VALID,0,VALID,76.2951,VALID,256.999,VALID,23.3638,VALID,90,VALID,0,
2016-11-14, 16:28:04,VALID,918.735,VALID,0,VALID,76.8135,VALID,268.388,VALID,23.3443,VALID,78,VALID,0,
2016-11-14, 16:29:04,VALID,918.716,VALID,0,VALID,75.9445,VALID,282.463,VALID,23.3053,VALID,74,VALID,0,
2016-11-14, 16:30:04,VALID,918.724,VALID,0,VALID,79.0853,VALID,300.083,VALID,23.3443,VALID,74,VALID,0,
2016-11-14, 16:31:04,VALID,918.703,VALID,0,VALID,77.5683,VALID,320.175,VALID,23.4046,VALID,87,VALID,0,
2016-11-14, 16:32:04,VALID,918.69,VALID,0,VALID,77.4387,VALID,342.737,VALID,23.5022,VALID,80,VALID,0,
2016-11-14, 16:33:04,VALID,918.668,VALID,0,VALID,77.2404,VALID,361.11,VALID,23.5217,VALID,79,VALID,0,
2016-11-14, 16:34:04,VALID,918.666,VALID,0,VALID,75.6014,VALID,383.78,VALID,23.5022,VALID,76,VALID,0,
2016-11-14, 16:35:04,VALID,918.659,VALID,0,VALID,74.801,VALID,401.615,VALID,23.559,VALID,73,VALID,0,
2016-11-14, 16:36:04,VALID,918.688,VALID,0,VALID,73.7642,VALID,419.773,VALID,23.598,VALID,76,VALID,0,
2016-11-14, 16:37:04,VALID,918.676,VALID,0,VALID,74.5494,VALID,432.773,VALID,23.637,VALID,76,VALID,0,
2016-11-14, 16:38:04,VALID,918.671,VALID,0,VALID,76.8669,VALID,447.492,VALID,23.7932,VALID,76,VALID,0,
2016-11-14, 16:39:04,VALID,918.692,VALID,0,VALID,76.2189,VALID,447.707,VALID,23.9121,VALID,85,VALID,0,
2016-11-14, 16:40:04,VALID,918.637,VALID,0,VALID,71.2027,VALID,454.369,VALID,23.9689,VALID,59,VALID,0.412891,
2016-11-14, 16:41:04,VALID,918.667,VALID,0,VALID,74.2826,VALID,452.327,VALID,23.8908,VALID,59,VALID,0,
2016-11-14, 16:42:04,VALID,918.652,VALID,0,VALID,75.609,VALID,447.278,VALID,23.8127,VALID,66,VALID,0.009375,
2016-11-14, 16:43:04,VALID,918.673,VALID,0,VALID,74.9763,VALID,445.881,VALID,23.756,VALID,85,VALID,0,
2016-11-14, 16:44:04,VALID,918.65,VALID,0,VALID,76.1046,VALID,454.584,VALID,23.7542,VALID,62,VALID,0,
2016-11-14, 16:45:04,VALID,918.624,VALID,0,VALID,78.3535,VALID,471.882,VALID,23.8517,VALID,45,VALID,0.855469,
2016-11-14, 16:46:04,VALID,918.641,VALID,0,VALID,73.5812,VALID,473.278,VALID,23.9493,VALID,124,VALID,0.568359,
2016-11-14, 16:47:04,VALID,918.631,VALID,0,VALID,74.6637,VALID,450.716,VALID,23.9512,VALID,128,VALID,0.335547,
2016-11-14, 16:48:04,VALID,918.666,VALID,0,VALID,74.3207,VALID,429.765,VALID,23.9493,VALID,134,VALID,0.664844,
2016-11-14, 16:49:04,VALID,918.647,VALID,0,VALID,73.8404,VALID,412.144,VALID,23.8694,VALID,142,VALID,0,
2016-11-14, 16:50:04,VALID,918.606,VALID,0,VALID,72.8265,VALID,391.73,VALID,23.9298,VALID,116,VALID,0.00390625,
2016-11-14, 16:51:04,VALID,918.633,VALID,0,VALID,72.5978,VALID,373.143,VALID,23.9884,VALID,88,VALID,0,
2016-11-14, 16:52:04,VALID,918.62,VALID,0,VALID,70.7834,VALID,359.498,VALID,24.1641,VALID,61,VALID,0.424609,
2016-11-14, 16:53:04,VALID,918.606,VALID,0,VALID,71.0655,VALID,348.969,VALID,24.1641,VALID,62,VALID,0,
2016-11-14, 16:54:04,VALID,918.605,VALID,0,VALID,71.2942,VALID,341.555,VALID,24.1445,VALID,62,VALID,0,
2016-11-14, 16:55:04,VALID,918.594,VALID,0,VALID,73.3906,VALID,334.357,VALID,24.1641,VALID,38,VALID,0,
2016-11-14, 16:56:04,VALID,918.607,VALID,0,VALID,74.7933,VALID,327.481,VALID,24.2812,VALID,39,VALID,0,
2016-11-14, 16:57:04,VALID,918.592,VALID,0,VALID,73.3678,VALID,320.927,VALID,24.4569,VALID,350,VALID,0,
2016-11-14, 16:58:04,VALID,918.588,VALID,0,VALID,71.2789,VALID,312.439,VALID,24.5331,VALID,9,VALID,0,
2016-11-14, 16:59:04,VALID,918.599,VALID,0,VALID,73.6041,VALID,303.414,VALID,24.5935,VALID,10,VALID,0,
2016-11-14, 17:00:04,VALID,918.608,VALID,0,VALID,74.2978,VALID,294.174,VALID,24.5331,VALID,15,VALID,0,
2016-11-14, 17:01:04,VALID,918.611,VALID,0,VALID,73.8328,VALID,288.265,VALID,24.535,VALID,22,VALID,0,
2016-11-14, 17:02:04,VALID,918.62,VALID,0,VALID,72.0032,VALID,286.116,VALID,24.5526,VALID,354,VALID,0,
2016-11-14, 17:03:04,VALID,918.648,VALID,0,VALID,71.9879,VALID,286.438,VALID,24.6112,VALID,354,VALID,0,
2016-11-14, 17:04:04,VALID,918.622,VALID,0,VALID,72.026,VALID,289.017,VALID,24.693,INVALID,360,VALID,0,
2016-11-14, 17:05:04,VALID,918.617,VALID,0,VALID,72.5749,VALID,293.314,VALID,24.6716,VALID,350,VALID,0,
2016-11-14, 17:06:04,VALID,918.6,VALID,0,VALID,70.9969,VALID,298.794,VALID,24.6912,VALID,4,VALID,0,
2016-11-14, 17:07:04,VALID,918.625,VALID,0,VALID,72.4987,VALID,306.959,VALID,24.6131,VALID,349,VALID,0,
2016-11-14, 17:08:04,VALID,918.636,VALID,0,VALID,71.4162,VALID,317.596,VALID,24.6521,VALID,349,VALID,0,
2016-11-14, 17:09:04,VALID,918.63,VALID,0,VALID,71.5,VALID,325.547,VALID,24.7126,VALID,353,VALID,0,
2016-11-14, 17:10:04,VALID,918.622,VALID,0,VALID,71.096,VALID,327.91,VALID,24.5935,INVALID,360,VALID,0,
2016-11-14, 17:11:04,VALID,918.655,VALID,0,VALID,76.9736,VALID,327.158,VALID,24.574,VALID,3,VALID,0,
2016-11-14, 17:12:04,VALID,918.652,VALID,0,VALID,79.0853,VALID,323.183,VALID,24.6131,VALID,352,VALID,0,
2016-11-14, 17:13:04,VALID,918.654,VALID,0,VALID,70.4022,VALID,317.811,VALID,24.6716,VALID,4,VALID,0,
2016-11-14, 17:14:04,VALID,918.634,VALID,0,VALID,72.4225,VALID,312.009,VALID,24.6131,VALID,13,VALID,0,
2016-11-14, 17:15:04,VALID,918.66,VALID,0,VALID,74.4808,VALID,306.852,VALID,24.535,VALID,12,VALID,0,
2016-11-14, 17:16:04,VALID,918.695,VALID,0,VALID,76.7144,VALID,302.769,VALID,24.5173,VALID,355,VALID,0,
2016-11-14, 17:17:04,VALID,918.69,VALID,0,VALID,74.8162,VALID,300.191,VALID,24.4178,VALID,346,VALID,0,
2016-11-14, 17:18:04,VALID,918.691,VALID,0,VALID,77.7741,VALID,299.546,VALID,24.3983,VALID,346,VALID,0,
2016-11-14, 17:19:04,VALID,918.714,VALID,0,VALID,78.5136,VALID,300.298,VALID,24.3788,VALID,346,VALID,0,
2016-11-14, 17:20:04,VALID,918.697,VALID,0,VALID,77.5987,VALID,301.91,VALID,24.416,VALID,346,VALID,0,
2016-11-14, 17:21:04,VALID,918.709,VALID,0,VALID,75.67,VALID,303.414,VALID,24.574,VALID,346,VALID,0,
2016-11-14, 17:22:04,VALID,918.715,VALID,0,VALID,76.3942,VALID,303.844,VALID,24.6521,VALID,346,VALID,0,
2016-11-14, 17:23:04,VALID,918.738,VALID,0,VALID,76.2037,VALID,302.984,VALID,24.6326,VALID,346,VALID,0,
2016-11-14, 17:24:04,VALID,918.758,VALID,0,VALID,78.4297,VALID,301.587,VALID,24.7107,VALID,346,VALID,0,
2016-11-14, 17:25:04,VALID,918.731,VALID,0,VALID,78.14,VALID,300.191,VALID,24.7693,VALID,346,VALID,0,
2016-11-14, 17:26:04,VALID,918.78,VALID,0,VALID,78.3763,VALID,300.191,VALID,24.9059,VALID,346,VALID,0,
2016-11-14, 17:27:04,VALID,918.789,VALID,0,VALID,76.0969,VALID,301.05,VALID,25.0036,VALID,347,VALID,0,
2016-11-14, 17:28:04,VALID,918.787,VALID,0,VALID,75.6777,VALID,303.521,VALID,25.1402,VALID,348,VALID,0,
2016-11-14, 17:29:04,VALID,918.799,VALID,0,VALID,74.1301,VALID,306.637,VALID,25.2965,VALID,349,VALID,0,
2016-11-14, 17:30:04,VALID,918.815,VALID,0,VALID,74.1149,VALID,310.397,VALID,25.4136,VALID,347,VALID,0,
2016-11-14, 17:31:04,VALID,918.801,VALID,0,VALID,74.8162,VALID,314.158,VALID,25.5113,VALID,348,VALID,0,
2016-11-14, 17:32:04,VALID,918.806,VALID,0,VALID,75.0297,VALID,316.844,VALID,25.6304,VALID,350,VALID,0,
2016-11-14, 17:33:04,VALID,918.81,VALID,0,VALID,73.6041,VALID,318.241,VALID,25.5698,VALID,346,VALID,0,
2016-11-14, 17:34:04,VALID,918.831,VALID,0,VALID,74.1377,VALID,319.1,VALID,25.5894,VALID,346,VALID,0,
2016-11-14, 17:35:04,VALID,918.823,VALID,0,VALID,73.9166,VALID,319.852,VALID,25.6284,VALID,17,VALID,0,
2016-11-14, 17:36:04,VALID,918.808,VALID,0,VALID,73.9166,VALID,322.216,VALID,25.5894,VALID,19,VALID,0,
2016-11-14, 17:37:04,VALID,918.833,VALID,0,VALID,74.6485,VALID,325.762,VALID,25.6109,VALID,21,VALID,0,
2016-11-14, 17:38:04,VALID,918.828,VALID,0,VALID,73.4211,VALID,330.596,VALID,25.5894,VALID,11,VALID,0,
2016-11-14, 17:39:04,VALID,918.813,VALID,0,VALID,71.1875,VALID,335.646,VALID,25.5894,VALID,8,VALID,0,
2016-11-14, 17:40:04,VALID,918.832,VALID,0,VALID,73.4364,VALID,341.233,VALID,25.6089,VALID,8,VALID,0,
2016-11-14, 17:41:04,VALID,918.809,VALID,0,VALID,72.331,VALID,346.713,VALID,25.5698,VALID,14,VALID,0,
2016-11-14, 17:42:04,VALID,918.825,VALID,0,VALID,75.6014,VALID,351.977,VALID,25.5894,VALID,5,VALID,0,
2016-11-14, 17:43:04,VALID,918.794,VALID,0,VALID,71.2789,VALID,357.134,VALID,25.4917,VALID,360,VALID,0,
2016-11-14, 17:44:04,VALID,918.769,VALID,0,VALID,73.5278,VALID,361.754,VALID,25.3355,VALID,24,VALID,0,
2016-11-14, 17:45:04,VALID,918.761,VALID,0,VALID,75.4108,VALID,367.019,VALID,25.2965,VALID,25,VALID,0,
2016-11-14, 17:46:04,VALID,918.767,VALID,0,VALID,77.37,VALID,372.284,VALID,25.316,VALID,24,VALID,0,
2016-11-14, 17:47:04,VALID,918.753,VALID,0,VALID,74.1453,VALID,376.689,VALID,25.3941,VALID,24,VALID,0,
2016-11-14, 17:48:04,VALID,918.712,VALID,0,VALID,75.0297,VALID,380.127,VALID,25.3746,VALID,20,VALID,0,
2016-11-14, 17:49:04,VALID,918.726,VALID,0,VALID,76.379,VALID,382.491,VALID,25.4527,VALID,13,VALID,0,
2016-11-14, 17:50:04,VALID,918.72,VALID,0,VALID,73.0628,VALID,384.747,VALID,25.4527,VALID,19,VALID,0,
2016-11-14, 17:51:04,VALID,918.698,VALID,0,VALID,74.9382,VALID,388.4,VALID,25.3355,VALID,19,VALID,0,
2016-11-14, 17:52:04,VALID,918.661,VALID,0,VALID,75.3422,VALID,394.094,VALID,25.2965,VALID,12,VALID,0,
2016-11-14, 17:53:04,VALID,918.675,VALID,0,VALID,76.966,VALID,401.185,VALID,25.1793,VALID,354,VALID,0,
2016-11-14, 17:54:04,VALID,918.653,VALID,0,VALID,74.9001,VALID,407.954,VALID,25.0231,VALID,314,VALID,0,
2016-11-14, 17:55:04,VALID,918.646,VALID,0,VALID,78.4145,VALID,414.293,VALID,24.945,VALID,324,VALID,0,
2016-11-14, 17:56:04,VALID,918.651,VALID,0,VALID,79.2835,VALID,419.128,VALID,25.0212,VALID,346,VALID,0,
2016-11-14, 17:57:04,VALID,918.611,VALID,0,VALID,78.9862,VALID,422.029,VALID,25.0798,VALID,358,VALID,0,
2016-11-14, 17:58:04,VALID,918.596,VALID,0,VALID,78.3382,VALID,425.145,VALID,25.0621,VALID,35,VALID,0,
2016-11-14, 17:59:04,VALID,918.628,VALID,0,VALID,77.8275,VALID,428.26,VALID,25.0621,VALID,14,VALID,0,
2016-11-14, 18:00:04,VALID,918.629,VALID,0,VALID,78.7041,VALID,427.401,VALID,25.1383,VALID,19,VALID,0,
2016-11-14, 18:01:04,VALID,918.582,VALID,0,VALID,75.609,VALID,424.5,VALID,25.2164,VALID,315,VALID,0,
2016-11-14, 18:02:04,VALID,918.608,VALID,0,VALID,78.727,VALID,418.054,VALID,25.3141,VALID,353,VALID,0,
2016-11-14, 18:03:04,VALID,918.598,VALID,0,VALID,75.5252,VALID,406.987,VALID,25.3922,VALID,359,VALID,0,